Find Starlink 5750

NORAD ID: 55594 Int'l Des: 2023-020 Owner: SPXS Country: US Constellation: starlink operational
LEOCIRCULAR

現在のビュー

3D地球を読み込み中...

About Starlink 5750

Starlink 5750 (NORAD 55594) is a starlink constellation satellite (v1.5) launched Feb 12, 2023 by SPXS of US. It operates in LEO, CIRCULAR orbit with a mass of 305.00 kg.

次回通過

Passes for default location (London). Set your location on the main map for personalized predictions.

高度履歴

Loading altitude history...

軌道要素

1 55594U 23020AB 26263.13482427 .00000224 00000-0 17675-4 0 9993
2 55594 43.0040 346.8248 0001249 270.7792 89.2917 15.27578543198658
Epoch: Sep 20, 2026 • Age: 14 hours

現在のステータス

高度 492.0 km
遠地点 / 近地点 N/A
速度 7.62 km/s
衛星直下点 -33.99°S, 42.19°W
打ち上げ日 Feb 12, 2023
運用期間 3.6 years
タイプ internet

技術仕様

分類 Payload
質量 305.00 kg
乾燥質量 290.00 kg
長さ 0.20 m
スパン 9.00 m
形状 ? Box + pan
製造者 SPXS
バスタイプ Starlink
フェーズステータス In Orbit
所有者/国 SPXS/US

Most Searched